WXM80 ListenWXM80 Stop

You find our weather info also at:

UK Metoffice

WeatherCloud

Weather Underground

Northeastern Weather Network

AWEKAS

Citizen Weather Observer Program (CWOP)

HAMweather, WeatherForYou, PWS Weather


Weather Underground History page Text

Daily Summary for July 20, 2016 Units:  English    Metric   Both
« Previous Day
Next Day »
Daily Weekly Monthly Yearly Custom
  High: Low: Average:
Temperature: 87.7 °F 64.3 °F 75.7 °F
Dew Point: 64.3 °F 56.4 °F 60.2 °F
Humidity: 85 % 35 % 61 %
Wind Speed: 5.2 mph 0.0 mph 1 mph
Wind Gust: 8.1 mph - -
Wind:- - SSE
Pressure: 30.22 in 30.10 in -
Precipitation: 0.00 in    
Historical Graphs
 
 
Tabular Data for July 20, 2016
Time Temperature Dew Point Pressure Wind Wind Speed Wind Gust Humidity Rainfall Rate (Hourly)
00:04 69.3 °F 61.8 °F 30.14 in Calm     77 % 0.00 in
00:09 69.3 °F 61.8 °F 30.13 in North 0.3 mph 2.3 mph 77 % 0.00 in
00:14 69.3 °F 62.1 °F 30.13 in North 0.1 mph 1.2 mph 78 % 0.00 in
00:19 69.3 °F 62.5 °F 30.13 in North 0.6 mph 2.3 mph 79 % 0.00 in
00:24 69.3 °F 62.1 °F 30.13 in North 0.3 mph 2.3 mph 78 % 0.00 in
00:29 69.3 °F 61.4 °F 30.13 in NNE 0.5 mph 2.3 mph 76 % 0.00 in
00:34 69.3 °F 60.7 °F 30.13 in NNE 1.4 mph 3.5 mph 74 % 0.00 in
00:45 69.5 °F 60.5 °F 30.13 in NNE 2.0 mph 4.6 mph 73 % 0.00 in
00:50 69.6 °F 60.6 °F 30.13 in NNE 1.2 mph 4.0 mph 73 % 0.00 in
00:55 69.8 °F 60.4 °F 30.13 in North 0.9 mph 4.6 mph 72 % 0.00 in
01:00 69.9 °F 60.5 °F 30.13 in NE 0.4 mph 3.5 mph 72 % 0.00 in
01:05 70.1 °F 61.0 °F 30.13 in NNE 1.5 mph 3.5 mph 73 % 0.00 in
01:10 70.2 °F 61.1 °F 30.13 in NNE 1.5 mph 3.5 mph 73 % 0.00 in
01:15 70.3 °F 61.2 °F 30.13 in North 0.9 mph 3.5 mph 73 % 0.00 in
01:20 70.3 °F 61.2 °F 30.13 in NNE 1.9 mph 4.6 mph 73 % 0.00 in
01:25 70.4 °F 60.9 °F 30.14 in Calm   1.2 mph 72 % 0.00 in
01:31 70.4 °F 60.5 °F 30.14 in NNE 0.5 mph 3.5 mph 71 % 0.00 in
01:36 70.4 °F 60.1 °F 30.14 in North 2.0 mph 5.0 mph 70 % 0.00 in
01:41 70.4 °F 60.2 °F 30.13 in North 1.0 mph 3.0 mph 70 % 0.00 in
01:46 70.4 °F 60.5 °F 30.14 in NNE 0.4 mph 3.5 mph 71 % 0.00 in
01:51 70.4 °F 60.5 °F 30.14 in Calm   2.0 mph 71 % 0.00 in
01:56 70.4 °F 60.5 °F 30.14 in NNE 2.0 mph 5.0 mph 71 % 0.00 in
02:01 70.3 °F 60.4 °F 30.14 in NNE 0.2 mph   71 % 0.00 in
02:03 70.3 °F 60.4 °F 30.14 in Calm     71 % 0.00 in
02:08 70.3 °F 60.8 °F 30.14 in NNE 2.0 mph 3.5 mph 72 % 0.00 in
02:13 70.2 °F 61.1 °F 30.14 in Calm     73 % 0.00 in
02:14 70.2 °F 61.1 °F 30.14 in Calm     73 % 0.00 in
02:15 70.2 °F 61.1 °F 30.14 in NNE 0.4 mph   73 % 0.00 in
02:20 70.1 °F 60.7 °F 30.14 in Calm   1.2 mph 72 % 0.00 in
02:25 70.0 °F 60.6 °F 30.15 in Calm   3.5 mph 72 % 0.00 in
02:30 69.9 °F 60.8 °F 30.15 in Calm   1.2 mph 73 % 0.00 in
02:35 69.7 °F 61.0 °F 30.15 in Calm   1.2 mph 74 % 0.00 in
02:41 69.6 °F 60.9 °F 30.15 in Calm   1.0 mph 74 % 0.00 in
02:46 69.4 °F 60.4 °F 30.15 in NNE 0.6 mph 3.5 mph 73 % 0.00 in
02:51 69.2 °F 60.2 °F 30.15 in Calm   1.2 mph 73 % 0.00 in
02:56 69.0 °F 60.7 °F 30.15 in Calm     75 % 0.00 in
03:01 68.8 °F 60.9 °F 30.15 in Calm     76 % 0.00 in
03:06 68.5 °F 60.3 °F 30.15 in NNE 0.1 mph 1.2 mph 75 % 0.00 in
03:11 68.3 °F 60.4 °F 30.15 in NNE 0.7 mph 2.3 mph 76 % 0.00 in
03:16 68.0 °F 60.2 °F 30.15 in NNE 0.5 mph 2.0 mph 76 % 0.00 in
03:21 67.8 °F 60.3 °F 30.15 in NNE 0.1 mph 1.0 mph 77 % 0.00 in
03:26 67.6 °F 60.1 °F 30.15 in Calm   1.2 mph 77 % 0.00 in
03:32 67.4 °F 59.9 °F 30.15 in Calm     77 % 0.00 in
03:37 67.2 °F 59.7 °F 30.15 in Calm   1.2 mph 77 % 0.00 in
03:42 67.0 °F 59.9 °F 30.15 in Calm     78 % 0.00 in
03:47 66.8 °F 60.1 °F 30.14 in Calm     79 % 0.00 in
03:52 66.7 °F 60.0 °F 30.15 in NNE 0.1 mph 1.2 mph 79 % 0.00 in
03:57 66.5 °F 59.8 °F 30.15 in NNE 0.1 mph 1.2 mph 79 % 0.00 in
04:02 66.3 °F 59.9 °F 30.14 in Calm   1.0 mph 80 % 0.00 in
04:07 66.2 °F 59.8 °F 30.14 in Calm     80 % 0.00 in
04:12 66.1 °F 59.7 °F 30.14 in Calm   1.2 mph 80 % 0.00 in
04:17 65.9 °F 59.9 °F 30.15 in NNE 0.6 mph 1.2 mph 81 % 0.00 in
04:23 65.8 °F 59.8 °F 30.15 in Calm   1.2 mph 81 % 0.00 in
04:28 65.6 °F 59.6 °F 30.15 in NNE 0.4 mph 1.2 mph 81 % 0.00 in
04:33 65.4 °F 59.4 °F 30.14 in Calm   1.2 mph 81 % 0.00 in
04:38 65.2 °F 59.6 °F 30.15 in NNE 1.0 mph 2.3 mph 82 % 0.00 in
04:43 65.1 °F 59.8 °F 30.15 in NNE 0.7 mph 1.2 mph 83 % 0.00 in
04:48 65.0 °F 59.7 °F 30.15 in Calm     83 % 0.00 in
04:53 64.8 °F 59.5 °F 30.14 in NNE 0.1 mph 1.0 mph 83 % 0.00 in
04:58 64.7 °F 59.8 °F 30.15 in Calm     84 % 0.00 in
05:03 64.6 °F 59.3 °F 30.15 in NNE 0.2 mph 2.3 mph 83 % 0.00 in
05:09 64.6 °F 59.7 °F 30.15 in Calm     84 % 0.00 in
05:14 64.5 °F 59.2 °F 30.15 in Calm   1.2 mph 83 % 0.00 in
05:19 64.5 °F 59.6 °F 30.16 in NNE 0.1 mph 1.2 mph 84 % 0.00 in
05:24 64.5 °F 59.6 °F 30.16 in Calm   1.2 mph 84 % 0.00 in
05:29 64.5 °F 59.6 °F 30.16 in Calm     84 % 0.00 in
05:34 64.5 °F 59.6 °F 30.16 in Calm     84 % 0.00 in
05:39 64.5 °F 59.9 °F 30.16 in NNE 0.2 mph 1.2 mph 85 % 0.00 in
05:44 64.5 °F 59.9 °F 30.17 in Calm   1.2 mph 85 % 0.00 in
05:49 64.5 °F 59.6 °F 30.16 in Calm     84 % 0.00 in
05:54 64.5 °F 59.9 °F 30.16 in Calm   1.2 mph 85 % 0.00 in
05:59 64.4 °F 59.5 °F 30.16 in Calm     84 % 0.00 in
06:04 64.4 °F 59.8 °F 30.16 in Calm     85 % 0.00 in
06:09 64.4 °F 59.8 °F 30.17 in NNE 0.2 mph 1.2 mph 85 % 0.00 in
06:15 64.4 °F 59.8 °F 30.17 in Calm   1.2 mph 85 % 0.00 in
06:20 64.3 °F 59.7 °F 30.17 in NNE 0.4 mph 1.2 mph 85 % 0.00 in
06:25 64.3 °F 59.0 °F 30.17 in North 2.0 mph 4.6 mph 83 % 0.00 in
06:30 64.4 °F 59.1 °F 30.17 in North 0.2 mph 3.5 mph 83 % 0.00 in
06:35 64.7 °F 59.4 °F 30.17 in North 2.2 mph 3.5 mph 83 % 0.00 in
06:40 65.0 °F 59.4 °F 30.18 in North 0.3 mph 1.2 mph 82 % 0.00 in
06:45 65.3 °F 59.7 °F 30.17 in North 1.2 mph 3.0 mph 82 % 0.00 in
06:50 65.6 °F 60.0 °F 30.18 in North 1.8 mph 3.5 mph 82 % 0.00 in
06:55 66.1 °F 60.4 °F 30.18 in NNE 3.7 mph 4.0 mph 82 % 0.00 in
07:00 66.5 °F 59.8 °F 30.18 in North 1.0 mph 3.5 mph 79 % 0.00 in
07:06 66.8 °F 60.8 °F 30.18 in NNE 2.4 mph 3.5 mph 81 % 0.00 in
07:11 67.2 °F 60.8 °F 30.18 in North 1.0 mph 4.0 mph 80 % 0.00 in
07:16 67.5 °F 60.8 °F 30.18 in North 1.0 mph 4.0 mph 79 % 0.00 in
07:21 68.0 °F 60.5 °F 30.19 in NNW 0.7 mph 3.5 mph 77 % 0.00 in
07:26 68.4 °F 60.9 °F 30.19 in NNW 1.0 mph 4.0 mph 77 % 0.00 in
07:31 68.8 °F 60.9 °F 30.19 in North 1.0 mph 3.0 mph 76 % 0.00 in
07:36 69.2 °F 61.7 °F 30.19 in North 1.6 mph 3.5 mph 77 % 0.00 in
07:41 69.4 °F 60.8 °F 30.19 in North 2.0 mph 3.0 mph 74 % 0.00 in
07:46 69.6 °F 61.3 °F 30.19 in Calm   3.0 mph 75 % 0.00 in
07:51 69.8 °F 61.5 °F 30.20 in North 1.0 mph 3.0 mph 75 % 0.00 in
07:56 69.9 °F 61.2 °F 30.20 in NNE 2.0 mph 5.0 mph 74 % 0.00 in
08:01 70.0 °F 60.2 °F 30.20 in NNE 0.3 mph 2.0 mph 71 % 0.00 in
08:06 70.1 °F 60.7 °F 30.21 in NNE 1.0 mph 3.5 mph 72 % 0.00 in
08:11 70.2 °F 59.9 °F 30.21 in NNE 2.0 mph 4.0 mph 70 % 0.00 in
08:16 70.2 °F 60.7 °F 30.20 in NNE 1.0 mph 5.0 mph 72 % 0.00 in
08:21 70.3 °F 61.2 °F 30.21 in NNW 3.3 mph 4.6 mph 73 % 0.00 in
08:26 70.4 °F 60.5 °F 30.21 in NNE 2.0 mph 5.0 mph 71 % 0.00 in
08:31 70.6 °F 61.5 °F 30.21 in NE 1.0 mph 3.0 mph 73 % 0.00 in
08:36 70.7 °F 61.6 °F 30.21 in North 0.2 mph 1.2 mph 73 % 0.00 in
08:41 70.9 °F 62.2 °F 30.21 in NNE 2.0 mph 4.0 mph 74 % 0.00 in
08:46 71.0 °F 61.5 °F 30.21 in Calm   5.0 mph 72 % 0.00 in
08:51 71.1 °F 61.2 °F 30.21 in North 1.5 mph 3.5 mph 71 % 0.00 in
08:56 71.2 °F 61.3 °F 30.21 in NNE 1.0 mph 4.0 mph 71 % 0.00 in
09:01 71.2 °F 60.5 °F 30.21 in ENE 2.0 mph 4.6 mph 69 % 0.00 in
09:06 71.3 °F 61.4 °F 30.21 in ENE 3.0 mph 4.0 mph 71 % 0.00 in
09:11 71.4 °F 61.1 °F 30.21 in North 2.7 mph 4.6 mph 70 % 0.00 in
09:16 71.6 °F 61.7 °F 30.21 in North 2.6 mph 4.0 mph 71 % 0.00 in
09:21 71.6 °F 60.5 °F 30.21 in NNE 2.5 mph 5.8 mph 68 % 0.00 in
09:26 71.7 °F 61.0 °F 30.21 in ENE 1.4 mph 3.5 mph 69 % 0.00 in
09:31 71.7 °F 58.9 °F 30.21 in ENE 3.6 mph 6.9 mph 64 % 0.00 in
09:36 71.9 °F 59.9 °F 30.21 in NNE 3.0 mph 6.9 mph 66 % 0.00 in
09:41 72.2 °F 59.3 °F 30.22 in ENE 1.7 mph 3.5 mph 64 % 0.00 in
09:46 72.5 °F 60.1 °F 30.21 in ENE 2.1 mph 6.9 mph 65 % 0.00 in
09:52 72.8 °F 59.9 °F 30.21 in ENE 1.6 mph 3.5 mph 64 % 0.00 in
09:57 73.2 °F 60.7 °F 30.21 in NE 1.9 mph 3.5 mph 65 % 0.00 in
10:02 73.7 °F 61.2 °F 30.22 in NE 1.5 mph 3.5 mph 65 % 0.00 in
10:07 74.5 °F 61.1 °F 30.21 in NNE 0.2 mph 1.2 mph 63 % 0.00 in
10:12 75.5 °F 61.6 °F 30.21 in NNE 0.4 mph 2.0 mph 62 % 0.00 in
10:17 76.6 °F 62.1 °F 30.21 in NE 0.4 mph 1.2 mph 61 % 0.00 in
10:22 77.6 °F 62.1 °F 30.21 in NE 2.0 mph 3.5 mph 59 % 0.00 in
10:27 78.5 °F 63.5 °F 30.21 in NE 0.1 mph 1.2 mph 60 % 0.00 in
10:32 79.5 °F 61.9 °F 30.21 in NE 0.2 mph 1.2 mph 55 % 0.00 in
10:37 80.3 °F 64.2 °F 30.21 in NE 0.1 mph 2.3 mph 58 % 0.00 in
10:38 80.4 °F 64.3 °F 30.21 in NE 0.1 mph 2.3 mph 58 % 0.00 in
10:39 80.5 °F 63.4 °F 30.21 in NE 0.9 mph 2.3 mph 56 % 0.00 in
10:44 81.1 °F 62.3 °F 30.21 in NE 1.0 mph 3.0 mph 53 % 0.00 in
10:49 81.4 °F 61.0 °F 30.21 in ENE 2.3 mph 3.5 mph 50 % 0.00 in
10:54 81.7 °F 61.2 °F 30.21 in ENE 0.2 mph 2.3 mph 50 % 0.00 in
10:59 82.0 °F 61.0 °F 30.21 in NE 1.3 mph 4.6 mph 49 % 0.00 in
11:04 82.3 °F 60.1 °F 30.21 in NE 1.3 mph 3.5 mph 47 % 0.00 in
11:10 82.2 °F 60.6 °F 30.21 in ENE 2.3 mph 5.0 mph 48 % 0.00 in
11:15 82.2 °F 58.7 °F 30.21 in NE 2.6 mph 5.8 mph 45 % 0.00 in
11:20 82.0 °F 62.1 °F 30.21 in NE 0.3 mph 3.0 mph 51 % 0.00 in
11:25 82.3 °F 58.2 °F 30.21 in NNW 2.0 mph 3.5 mph 44 % 0.00 in
11:30 82.5 °F 60.2 °F 30.20 in North 0.9 mph 2.3 mph 47 % 0.00 in
11:35 82.7 °F 61.6 °F 30.20 in NE 2.6 mph 4.6 mph 49 % 0.00 in
11:40 82.7 °F 59.8 °F 30.21 in North 1.3 mph 3.5 mph 46 % 0.00 in
11:45 82.8 °F 56.7 °F 30.20 in NE 0.5 mph 3.5 mph 41 % 0.00 in
11:51 83.0 °F 57.5 °F 30.20 in North 2.7 mph 3.5 mph 42 % 0.00 in
11:56 83.1 °F 60.2 °F 30.20 in NE 0.5 mph 3.5 mph 46 % 0.00 in
12:01 83.3 °F 59.1 °F 30.20 in NE 1.5 mph 3.5 mph 44 % 0.00 in
12:06 83.7 °F 58.2 °F 30.20 in NNE 1.5 mph 2.3 mph 42 % 0.00 in
12:11 84.1 °F 59.8 °F 30.20 in NNE 1.6 mph 3.5 mph 44 % 0.00 in
12:16 84.4 °F 56.7 °F 30.19 in NE 0.4 mph 2.3 mph 39 % 0.00 in
12:21 84.4 °F 57.4 °F 30.19 in NE 0.5 mph 2.0 mph 40 % 0.00 in
12:26 84.8 °F 58.5 °F 30.19 in NE 0.5 mph 2.3 mph 41 % 0.00 in
12:31 84.8 °F 57.1 °F 30.18 in Calm   1.2 mph 39 % 0.00 in
12:36 85.2 °F 58.8 °F 30.18 in SSE 1.1 mph 2.3 mph 41 % 0.00 in
12:42 85.3 °F 56.8 °F 30.18 in North 1.2 mph 2.3 mph 38 % 0.00 in
12:47 85.6 °F 57.1 °F 30.18 in Calm   1.2 mph 38 % 0.00 in
12:52 85.6 °F 57.8 °F 30.18 in NE 0.3 mph 3.5 mph 39 % 0.00 in
12:57 85.6 °F 59.2 °F 30.18 in NE 0.3 mph 3.5 mph 41 % 0.00 in
13:02 85.9 °F 59.5 °F 30.18 in NE 0.5 mph 2.0 mph 41 % 0.00 in
13:07 85.9 °F 56.6 °F 30.18 in NW 1.6 mph 3.5 mph 37 % 0.00 in
13:12 85.9 °F 56.6 °F 30.18 in NNE 1.4 mph 3.5 mph 37 % 0.00 in
13:17 86.3 °F 59.1 °F 30.17 in WNW 1.1 mph 3.5 mph 40 % 0.00 in
13:22 86.5 °F 58.6 °F 30.17 in North 4.3 mph 6.0 mph 39 % 0.00 in
13:27 86.4 °F 59.2 °F 30.17 in NNE 1.9 mph 5.0 mph 40 % 0.00 in
13:32 86.4 °F 59.9 °F 30.17 in NNE 1.3 mph 2.3 mph 41 % 0.00 in
13:38 86.5 °F 58.6 °F 30.16 in North 1.7 mph 3.0 mph 39 % 0.00 in
13:43 86.8 °F 58.1 °F 30.16 in WSW 0.5 mph 4.6 mph 38 % 0.00 in
13:48 87.0 °F 58.3 °F 30.16 in Calm   3.5 mph 38 % 0.00 in
13:53 87.4 °F 59.4 °F 30.16 in SW 2.5 mph 5.8 mph 39 % 0.00 in
13:58 87.4 °F 57.9 °F 30.16 in SSW 0.9 mph 3.5 mph 37 % 0.00 in
14:03 87.4 °F 57.2 °F 30.16 in SW 3.1 mph 4.6 mph 36 % 0.00 in
14:08 87.5 °F 58.0 °F 30.16 in WSW 2.8 mph 4.0 mph 37 % 0.00 in
14:13 87.5 °F 60.2 °F 30.16 in South 2.7 mph 5.8 mph 40 % 0.00 in
14:18 87.4 °F 56.4 °F 30.16 in West 4.8 mph 6.9 mph 35 % 0.00 in
14:24 87.1 °F 56.9 °F 30.16 in WSW 5.2 mph 8.1 mph 36 % 0.00 in
14:29 87.0 °F 58.3 °F 30.16 in SW 2.1 mph 3.5 mph 38 % 0.00 in
14:34 87.0 °F 57.6 °F 30.15 in WSW 2.1 mph 4.6 mph 37 % 0.00 in
14:39 87.3 °F 58.6 °F 30.15 in SW 3.1 mph 7.0 mph 38 % 0.00 in
14:44 87.2 °F 60.6 °F 30.14 in NW 3.1 mph 5.8 mph 41 % 0.00 in
14:49 87.1 °F 58.4 °F 30.15 in SW 3.7 mph 6.9 mph 38 % 0.00 in
14:54 87.0 °F 57.6 °F 30.14 in SW 3.9 mph 7.0 mph 37 % 0.00 in
14:59 86.8 °F 56.6 °F 30.14 in WSW 4.9 mph 8.1 mph 36 % 0.00 in
15:04 86.6 °F 59.4 °F 30.14 in WSW 4.7 mph 8.1 mph 40 % 0.00 in
15:09 86.6 °F 58.7 °F 30.14 in SSW 3.7 mph 3.7 mph 39 % 0.00 in
15:15 86.5 °F 57.9 °F 30.14 in SW 1.1 mph 6.9 mph 38 % 0.00 in
15:20 86.6 °F 58.7 °F 30.14 in WNW 1.1 mph 6.9 mph 39 % 0.00 in
15:25 86.8 °F 59.6 °F 30.14 in WNW 2.2 mph 3.5 mph 40 % 0.00 in
15:30 87.0 °F 60.5 °F 30.14 in SSW 2.1 mph 4.6 mph 41 % 0.00 in
15:35 87.2 °F 59.2 °F 30.13 in SSW 2.7 mph 5.8 mph 39 % 0.00 in
15:40 87.3 °F 58.6 °F 30.13 in NW 2.6 mph 5.8 mph 38 % 0.00 in
15:45 87.4 °F 60.8 °F 30.13 in SSW 1.6 mph 3.5 mph 41 % 0.00 in
15:50 87.4 °F 58.7 °F 30.13 in SW 3.8 mph 6.9 mph 38 % 0.00 in
15:55 87.3 °F 59.3 °F 30.13 in NW 1.0 mph 4.6 mph 39 % 0.00 in
16:00 87.4 °F 57.9 °F 30.12 in West 2.2 mph 5.8 mph 37 % 0.00 in
16:06 87.5 °F 59.5 °F 30.12 in WSW 1.0 mph 6.0 mph 39 % 0.00 in
16:11 87.6 °F 58.1 °F 30.12 in WSW 2.3 mph 4.0 mph 37 % 0.00 in
16:12 87.6 °F 58.1 °F 30.12 in SW 3.4 mph 6.0 mph 37 % 0.00 in
16:17 87.7 °F 58.9 °F 30.12 in SW 2.5 mph 4.0 mph 38 % 0.00 in
16:22 87.7 °F 58.9 °F 30.12 in SSW 2.2 mph 3.5 mph 38 % 0.00 in
16:27 87.5 °F 58.8 °F 30.12 in WSW 4.4 mph 6.9 mph 38 % 0.00 in
16:33 87.4 °F 57.2 °F 30.11 in SW 4.3 mph 5.8 mph 36 % 0.00 in
16:38 87.4 °F 59.4 °F 30.11 in WSW 0.6 mph 2.3 mph 39 % 0.00 in
16:43 87.3 °F 57.8 °F 30.11 in WSW 1.9 mph 3.5 mph 37 % 0.00 in
16:46 87.2 °F 58.5 °F 30.11 in WSW 2.0 mph 3.5 mph 38 % 0.00 in
16:51 87.2 °F 57.0 °F 30.11 in WNW 1.3 mph 2.3 mph 36 % 0.00 in
16:52 87.1 °F 59.1 °F 30.11 in WNW 1.1 mph 3.5 mph 39 % 0.00 in
16:57 86.9 °F 58.2 °F 30.11 in North 0.9 mph 5.8 mph 38 % 0.00 in
17:03 86.8 °F 57.4 °F 30.11 in NW 1.7 mph 4.6 mph 37 % 0.00 in
17:08 86.7 °F 58.1 °F 30.11 in WNW 0.9 mph 3.5 mph 38 % 0.00 in
17:13 86.6 °F 56.5 °F 30.10 in West 0.3 mph 4.6 mph 36 % 0.00 in
17:18 86.4 °F 58.5 °F 30.11 in NNE 0.5 mph 1.2 mph 39 % 0.00 in
17:23 86.0 °F 57.4 °F 30.10 in NW 1.2 mph 4.6 mph 38 % 0.00 in
17:28 85.6 °F 59.2 °F 30.10 in NW 2.7 mph 3.5 mph 41 % 0.00 in
17:33 85.2 °F 58.2 °F 30.10 in NW 2.7 mph 3.5 mph 40 % 0.00 in
17:38 85.0 °F 58.0 °F 30.10 in West 0.6 mph 3.0 mph 40 % 0.00 in
17:43 84.8 °F 58.5 °F 30.10 in WNW 1.5 mph 3.5 mph 41 % 0.00 in
17:48 84.6 °F 58.3 °F 30.10 in Calm   1.2 mph 41 % 0.00 in
17:53 84.3 °F 60.0 °F 30.10 in SE 0.2 mph 2.3 mph 44 % 0.00 in
17:59 84.2 °F 59.9 °F 30.10 in SSW 1.5 mph 3.0 mph 44 % 0.00 in
18:04 84.0 °F 61.0 °F 30.10 in SW 0.3 mph 2.0 mph 46 % 0.00 in
18:14 83.3 °F 59.7 °F 30.10 in SE 0.4 mph 1.2 mph 45 % 0.00 in
18:19 83.0 °F 60.7 °F 30.10 in SW 1.7 mph 3.5 mph 47 % 0.00 in
18:21 82.9 °F 60.6 °F 30.10 in South 2.0 mph 4.0 mph 47 % 0.00 in
18:26 82.5 °F 60.8 °F 30.10 in SSW 0.3 mph 2.0 mph 48 % 0.00 in
18:31 82.2 °F 60.6 °F 30.10 in SW 1.2 mph 4.0 mph 48 % 0.00 in
18:36 82.0 °F 60.4 °F 30.10 in SE 0.2 mph 3.5 mph 48 % 0.00 in
18:41 81.4 °F 60.4 °F 30.10 in WSW 3.4 mph 3.5 mph 49 % 0.00 in
18:46 81.1 °F 61.3 °F 30.10 in SSE 0.8 mph 1.0 mph 51 % 0.00 in
18:51 81.0 °F 60.6 °F 30.10 in SW 0.2 mph 3.5 mph 50 % 0.00 in
18:52 80.9 °F 60.5 °F 30.10 in SW 0.3 mph 2.3 mph 50 % 0.00 in
18:57 80.7 °F 60.9 °F 30.10 in West 0.1 mph 1.2 mph 51 % 0.00 in
19:02 80.4 °F 60.6 °F 30.10 in SSW 2.0 mph 3.5 mph 51 % 0.00 in
19:07 80.2 °F 61.0 °F 30.10 in SW 1.9 mph 3.5 mph 52 % 0.00 in
19:12 80.1 °F 61.4 °F 30.10 in Calm   1.2 mph 53 % 0.00 in
19:17 79.9 °F 61.8 °F 30.10 in SSW 0.2 mph 1.2 mph 54 % 0.00 in
19:22 79.7 °F 61.1 °F 30.11 in SSW 0.1 mph 2.3 mph 53 % 0.00 in
19:27 79.5 °F 61.4 °F 30.11 in SW 1.2 mph 2.3 mph 54 % 0.00 in
19:32 79.3 °F 61.7 °F 30.11 in SW 0.5 mph 1.2 mph 55 % 0.00 in
19:38 79.1 °F 61.5 °F 30.11 in SW 1.0 mph 2.0 mph 55 % 0.00 in
19:43 78.8 °F 61.3 °F 30.11 in Calm     55 % 0.00 in
19:47 78.6 °F 61.6 °F 30.11 in SW 1.2 mph 2.3 mph 56 % 0.00 in
19:52 78.3 °F 61.3 °F 30.11 in SW 0.8 mph 2.3 mph 56 % 0.00 in
19:57 78.0 °F 61.5 °F 30.12 in SSW 0.1 mph 1.2 mph 57 % 0.00 in
20:02 77.7 °F 61.3 °F 30.11 in SSW 0.1 mph 1.2 mph 57 % 0.00 in
20:03 77.7 °F 61.3 °F 30.12 in Calm     57 % 0.00 in
20:07 77.4 °F 61.5 °F 30.11 in Calm     58 % 0.00 in
20:13 77.1 °F 61.2 °F 30.11 in SSW 0.4 mph 1.2 mph 58 % 0.00 in
20:18 76.8 °F 61.4 °F 30.11 in SSW 0.3 mph 1.2 mph 59 % 0.00 in
20:23 76.4 °F 61.0 °F 30.11 in Calm     59 % 0.00 in
20:28 76.1 °F 61.2 °F 30.11 in Calm   1.2 mph 60 % 0.00 in
20:33 75.9 °F 61.5 °F 30.11 in Calm   1.2 mph 61 % 0.00 in
20:38 75.6 °F 61.2 °F 30.12 in Calm   1.2 mph 61 % 0.00 in
20:43 75.3 °F 61.4 °F 30.12 in SSW 0.1 mph 1.0 mph 62 % 0.00 in
20:48 75.0 °F 61.1 °F 30.12 in Calm     62 % 0.00 in
20:53 74.7 °F 61.3 °F 30.12 in SSW 0.1 mph 1.2 mph 63 % 0.00 in
20:58 74.4 °F 61.0 °F 30.12 in Calm   1.2 mph 63 % 0.00 in
21:03 74.2 °F 61.2 °F 30.12 in SSW 0.1 mph 1.2 mph 64 % 0.00 in
21:08 73.9 °F 61.0 °F 30.12 in SSW 0.6 mph 2.3 mph 64 % 0.00 in
21:12 73.7 °F 60.8 °F 30.13 in SSW 0.5 mph 2.0 mph 64 % 0.00 in
21:17 73.5 °F 61.0 °F 30.12 in SSW 0.7 mph 1.2 mph 65 % 0.00 in
21:22 73.3 °F 60.8 °F 30.13 in SSW 0.6 mph 1.2 mph 65 % 0.00 in
21:24 73.2 °F 60.7 °F 30.13 in SSW 0.3 mph 1.2 mph 65 % 0.00 in
21:29 73.0 °F 61.0 °F 30.13 in Calm   1.2 mph 66 % 0.00 in
21:34 72.8 °F 60.8 °F 30.13 in Calm   1.2 mph 66 % 0.00 in
21:39 72.6 °F 60.6 °F 30.13 in Calm   1.2 mph 66 % 0.00 in
21:44 72.5 °F 60.5 °F 30.13 in SSW 1.1 mph 2.3 mph 66 % 0.00 in
21:49 72.3 °F 60.7 °F 30.14 in SW 0.1 mph 1.2 mph 67 % 0.00 in
21:54 72.2 °F 60.6 °F 30.14 in SW 0.6 mph 2.3 mph 67 % 0.00 in
21:56 72.1 °F 60.5 °F 30.14 in Calm   1.0 mph 67 % 0.00 in
22:01 72.0 °F 60.4 °F 30.14 in Calm   1.2 mph 67 % 0.00 in
22:06 71.9 °F 60.8 °F 30.13 in Calm   1.2 mph 68 % 0.00 in
22:11 71.8 °F 60.7 °F 30.13 in Calm   1.2 mph 68 % 0.00 in
22:16 71.7 °F 60.6 °F 30.13 in SW 0.4 mph 1.2 mph 68 % 0.00 in
22:22 71.6 °F 60.9 °F 30.14 in SW 0.5 mph 1.2 mph 69 % 0.00 in
22:27 71.5 °F 61.2 °F 30.14 in SW 0.3 mph 1.2 mph 70 % 0.00 in
22:32 71.4 °F 61.1 °F 30.14 in SSW 0.8 mph 3.5 mph 70 % 0.00 in
22:37 71.4 °F 61.5 °F 30.14 in SSW 0.2 mph 2.3 mph 71 % 0.00 in
22:42 71.3 °F 61.4 °F 30.14 in SSW 0.4 mph 1.2 mph 71 % 0.00 in
22:46 71.3 °F 61.4 °F 30.14 in SSW 0.1 mph 1.2 mph 71 % 0.00 in
22:51 71.3 °F 61.4 °F 30.14 in Calm   1.2 mph 71 % 0.00 in
22:56 71.3 °F 61.8 °F 30.14 in SSW 0.3 mph 1.2 mph 72 % 0.00 in
23:01 71.3 °F 61.8 °F 30.14 in SSW 0.3 mph 2.3 mph 72 % 0.00 in
23:06 71.2 °F 61.7 °F 30.14 in SW 1.1 mph 3.5 mph 72 % 0.00 in
23:11 71.2 °F 61.7 °F 30.14 in SW 0.2 mph 2.3 mph 72 % 0.00 in
23:13 71.2 °F 61.7 °F 30.14 in SW 1.1 mph 2.3 mph 72 % 0.00 in
23:18 71.2 °F 62.1 °F 30.14 in SW 0.8 mph 2.3 mph 73 % 0.00 in
23:28 71.1 °F 62.0 °F 30.14 in Calm   2.3 mph 73 % 0.00 in
23:33 71.1 °F 62.0 °F 30.14 in SW 0.8 mph 2.3 mph 73 % 0.00 in
23:38 71.0 °F 61.9 °F 30.14 in SW 0.6 mph 2.3 mph 73 % 0.00 in
23:44 71.0 °F 61.9 °F 30.14 in SW 0.6 mph 1.2 mph 73 % 0.00 in
23:49 71.0 °F 61.9 °F 30.14 in SW 0.2 mph 1.2 mph 73 % 0.00 in
23:54 71.0 °F 61.9 °F 30.14 in Calm   1.0 mph 73 % 0.00 in
23:59 71.0 °F 61.9 °F 30.14 in Calm     73 % 0.00 in
Crab Meadow Weather
Compliments of Weather Underground - 3 mb

Script developed by  Jim McMurry - jmcmurry@mwt.net Adapted for the template by  Wim van der Kuil - Leuven-Template.eu

Weather Terms: Relative Humidity - The ratio of the amount of water vapor actually present in the air to the greatest amount possible at the same temperature.